When you browse on this site, cookies collect data to enhance your experience and personalize the content and advertising you see.
Visit our Privacy Policy to learn more. By continuing to use the site, you agree to this use of cookies and data.
  • In Switzerland
  • List of Countries
  • For 7 days
  • Water Temperature
  • Satellite Maps
  • Weather Map
  • Weather Widgets
  • user-avatar
    Login

    Hourly Weather Biskira

    Today, 24 June, Monday

    Time Temperature Precipitation Wind Pressure Humidity
    00:00 +38°C° 0 mm 4 mps 751 mmHg 10%
    01:00 +37°C° 0 mm 5 mps 751 mmHg 11%
    02:00 +37°C° 0 mm 5 mps 751 mmHg 12%
    03:00 +36°C° 0 mm 5 mps 751 mmHg 13%
    04:00 +37°C° 0 mm 5 mps 751 mmHg 13%
    05:00 +37°C° 0 mm 4 mps 751 mmHg 14%
    06:00 +37°C° 0 mm 4 mps 751 mmHg 14%
    07:00 +40°C° 0 mm 5 mps 751 mmHg 13%
    08:00 +42°C° 0 mm 6 mps 752 mmHg 11%
    09:00 +44°C° 0 mm 7 mps 752 mmHg 10%
    10:00 +46°C° 0 mm 7 mps 752 mmHg 9%
    11:00 +47°C° 0 mm 7 mps 751 mmHg 7%
    12:00 +50°C° 0 mm 7 mps 751 mmHg 6%
    13:00 +50°C° 0 mm 7 mps 751 mmHg 5%
    14:00 +49°C° 0 mm 6 mps 751 mmHg 5%
    15:00 +51°C° 0 mm 6 mps 750 mmHg 4%
    16:00 +49°C° 0 mm 6 mps 750 mmHg 5%
    17:00 +48°C° 0 mm 5 mps 750 mmHg 5%
    18:00 +47°C° 0 mm 5 mps 751 mmHg 5%
    19:00 +46°C° 0 mm 5 mps 751 mmHg 6%
    20:00 +43°C° 0 mm 5 mps 751 mmHg 7%
    21:00 +41°C° 0 mm 4 mps 751 mmHg 8%
    22:00 +40°C° 0 mm 4 mps 752 mmHg 8%
    23:00 +40°C° 0 mm 4 mps 752 mmHg 9%

    Tomorrow, 25 June, Tuesday

    Time Temperature Precipitation Wind Pressure Humidity
    00:00 +38°C° 0 mm 4 mps 752 mmHg 9%
    01:00 +37°C° 0 mm 3 mps 751 mmHg 10%
    02:00 +36°C° 0 mm 3 mps 751 mmHg 11%
    03:00 +35°C° 0 mm 3 mps 751 mmHg 11%
    04:00 +36°C° 0 mm 3 mps 752 mmHg 11%
    05:00 +36°C° 0 mm 3 mps 752 mmHg 11%
    06:00 +37°C° 0 mm 3 mps 753 mmHg 11%
    07:00 +40°C° 0 mm 4 mps 753 mmHg 11%
    08:00 +42°C° 0 mm 5 mps 753 mmHg 10%
    09:00 +45°C° 0 mm 6 mps 753 mmHg 9%
    10:00 +46°C° 0 mm 6 mps 753 mmHg 9%
    11:00 +47°C° 0 mm 6 mps 753 mmHg 8%
    12:00 +48°C° 0 mm 5 mps 753 mmHg 7%
    13:00 +48°C° 0 mm 5 mps 752 mmHg 6%
    14:00 +49°C° 0 mm 5 mps 752 mmHg 6%
    15:00 +49°C° 0 mm 5 mps 752 mmHg 5%
    16:00 +48°C° 0 mm 4 mps 752 mmHg 6%
    17:00 +48°C° 0 mm 4 mps 752 mmHg 6%
    18:00 +46°C° 0 mm 3 mps 752 mmHg 6%
    19:00 +44°C° 0 mm 3 mps 752 mmHg 7%
    20:00 +42°C° 0 mm 2 mps 753 mmHg 8%
    21:00 +40°C° 0 mm 2 mps 753 mmHg 9%
    22:00 +39°C° 0 mm 2 mps 753 mmHg 9%
    23:00 +39°C° 0 mm 2 mps 753 mmHg 10%

    Day after tomorrow, 26 June, Wednesday

    Time Temperature Precipitation Wind Pressure Humidity
    00:00 +38°C° 0 mm 3 mps 753 mmHg 10%
    01:00 +36°C° 0 mm 3 mps 753 mmHg 16%
    02:00 +35°C° 0 mm 3 mps 753 mmHg 21%
    03:00 +33°C° 0 mm 3 mps 753 mmHg 27%
    04:00 +34°C° 0 mm 2 mps 753 mmHg 26%
    05:00 +34°C° 0 mm 2 mps 754 mmHg 26%
    06:00 +34°C° 0 mm 1 mps 754 mmHg 26%
    07:00 +36°C° 0 mm 2 mps 754 mmHg 23%
    08:00 +38°C° 0 mm 2 mps 754 mmHg 20%
    09:00 +40°C° 0 mm 3 mps 754 mmHg 17%
    10:00 +42°C° 0 mm 3 mps 754 mmHg 15%
    11:00 +43°C° 0 mm 3 mps 754 mmHg 14%
    12:00 +45°C° 0 mm 2 mps 754 mmHg 12%
    13:00 +45°C° 0 mm 2 mps 753 mmHg 11%
    14:00 +46°C° 0 mm 2 mps 753 mmHg 10%
    15:00 +47°C° 0 mm 2 mps 752 mmHg 8%
    16:00 +47°C° 0 mm 2 mps 752 mmHg 8%
    17:00 +47°C° 0 mm 2 mps 752 mmHg 8%
    18:00 +46°C° 0 mm 2 mps 751 mmHg 8%
    19:00 +45°C° 0 mm 3 mps 752 mmHg 9%
    20:00 +44°C° 0 mm 4 mps 752 mmHg 10%
    21:00 +42°C° 0 mm 5 mps 753 mmHg 11%
    22:00 +41°C° 0 mm 5 mps 753 mmHg 14%
    23:00 +39°C° 0 mm 6 mps 753 mmHg 17%

    27 June, Thursday

    Time Temperature Precipitation Wind Pressure Humidity
    00:00 +38°C° 0 mm 6 mps 753 mmHg 20%
    01:00 +35°C° 0 mm 5 mps 753 mmHg 25%
    02:00 +34°C° 0 mm 3 mps 753 mmHg 29%
    03:00 +31°C° 0 mm 2 mps 753 mmHg 34%
    04:00 +32°C° 0 mm 2 mps 753 mmHg 35%
    05:00 +32°C° 0 mm 2 mps 753 mmHg 35%
    06:00 +32°C° 0 mm 1 mps 753 mmHg 36%
    07:00 +34°C° 0 mm 2 mps 753 mmHg 33%
    08:00 +35°C° 0 mm 2 mps 753 mmHg 30%
    09:00 +37°C° 0 mm 3 mps 753 mmHg 28%
    10:00 +38°C° 0 mm 3 mps 753 mmHg 25%
    11:00 +39°C° 0 mm 2 mps 752 mmHg 22%
    12:00 +40°C° 0 mm 2 mps 752 mmHg 20%
    13:00 +42°C° 0 mm 3 mps 751 mmHg 18%
    14:00 +44°C° 0 mm 3 mps 751 mmHg 15%
    15:00 +45°C° 0 mm 3 mps 750 mmHg 13%
    16:00 +45°C° 0 mm 3 mps 750 mmHg 13%
    17:00 +45°C° 0 mm 3 mps 750 mmHg 12%
    18:00 +45°C° 0 mm 3 mps 750 mmHg 11%
    19:00 +43°C° 0 mm 4 mps 750 mmHg 14%
    20:00 +41°C° 0 mm 4 mps 751 mmHg 16%
    21:00 +40°C° 0 mm 4 mps 751 mmHg 18%
    22:00 +37°C° 0 mm 5 mps 751 mmHg 21%
    23:00 +36°C° 0 mm 6 mps 751 mmHg 24%

    28 June, Friday

    Time Temperature Precipitation Wind Pressure Humidity
    00:00 +35°C° 0 mm 7 mps 751 mmHg 27%
    01:00 +34°C° 0 mm 6 mps 751 mmHg 30%
    02:00 +33°C° 0 mm 5 mps 751 mmHg 32%
    03:00 +33°C° 0 mm 5 mps 751 mmHg 34%
    04:00 +33°C° 0 mm 4 mps 751 mmHg 35%
    05:00 +32°C° 0 mm 4 mps 751 mmHg 36%
    06:00 +32°C° 0 mm 4 mps 751 mmHg 36%
    07:00 +34°C° 0 mm 4 mps 752 mmHg 34%
    08:00 +35°C° 0 mm 4 mps 752 mmHg 32%
    09:00 +36°C° 0 mm 4 mps 752 mmHg 29%
    10:00 +37°C° 0 mm 3 mps 751 mmHg 27%
    11:00 +38°C° 0 mm 3 mps 751 mmHg 25%
    12:00 +39°C° 0 mm 3 mps 751 mmHg 23%
    13:00 +40°C° 0 mm 3 mps 750 mmHg 21%
    14:00 +42°C° 0 mm 3 mps 750 mmHg 20%
    15:00 +41°C° 0 mm 2 mps 749 mmHg 19%
    16:00 +42°C° 0 mm 3 mps 749 mmHg 18%
    17:00 +42°C° 0 mm 3 mps 749 mmHg 18%
    18:00 +42°C° 0 mm 4 mps 749 mmHg 18%
    19:00 +40°C° 0 mm 3 mps 749 mmHg 19%
    20:00 +38°C° 0 mm 2 mps 750 mmHg 21%
    21:00 +36°C° 0 mm 1 mps 750 mmHg 22%
    22:00 +35°C° 0 mm 1 mps 750 mmHg 23%
    23:00 +34°C° 0 mm 1 mps 750 mmHg 25%

    29 June, Saturday

    Time Temperature Precipitation Wind Pressure Humidity
    00:00 +33°C° 0 mm 1 mps 750 mmHg 26%
    01:00 +34°C° 0 mm 3 mps 749 mmHg 27%
    02:00 +34°C° 0 mm 4 mps 749 mmHg 28%
    03:00 +33°C° 0 mm 5 mps 749 mmHg 29%
    04:00 +33°C° 0 mm 5 mps 750 mmHg 30%
    05:00 +33°C° 0 mm 5 mps 750 mmHg 30%
    06:00 +33°C° 0 mm 6 mps 750 mmHg 31%
    07:00 +35°C° 0 mm 5 mps 751 mmHg 29%
    08:00 +36°C° 0 mm 5 mps 751 mmHg 27%
    09:00 +37°C° 0 mm 5 mps 751 mmHg 25%
    10:00 +38°C° 0 mm 4 mps 750 mmHg 23%
    11:00 +39°C° 0 mm 3 mps 750 mmHg 21%
    12:00 +42°C° 0 mm 3 mps 750 mmHg 19%
    13:00 +41°C° 0 mm 2 mps 749 mmHg 18%
    14:00 +42°C° 0 mm 2 mps 749 mmHg 16%
    15:00 +43°C° 0 mm 2 mps 748 mmHg 14%
    16:00 +43°C° 0 mm 2 mps 748 mmHg 14%
    17:00 +43°C° 0 mm 2 mps 748 mmHg 13%
    18:00 +43°C° 0 mm 2 mps 748 mmHg 13%
    19:00 +41°C° 0 mm 2 mps 748 mmHg 14%
    20:00 +39°C° 0 mm 2 mps 749 mmHg 16%
    21:00 +37°C° 0 mm 1 mps 749 mmHg 17%
    22:00 +37°C° 0 mm 2 mps 749 mmHg 19%
    23:00 +36°C° 0 mm 2 mps 749 mmHg 20%
    Show more